Location: Wald
(31.7579°N, 86.6655°W)
Time: 11:32:12
(UTC+00:00)

NOSS 3-2 (C) - Pass Details

Date: 14 July 2020
Orbit: 801 x 1412 km, 63.4° (Epoch: 05 August)

Event Time Altitude Azimuth Distance (km) Brightness Sun altitude
Exits shadow 09:19:06 26° 205° (SSW) 1,586 4.1 -17.3°
Maximum altitude 09:22:22 85° 119° (ESE) 863 3.2 -16.8°
Drops below altitude 10° 09:28:26 10° 31° (NNE) 2,648 6.9 -15.8°
Sets 09:31:08 0° 31° (NNE) 3,681 7.9 -15.3°
